Weather History for KNBT - July, 2013

Change the Weather History Date:

Wednesday, July 24, 2013

  Actual Average (KMRH) Record (KMRH)
Temperature  
Mean Temperature 84 °F -  
Max Temperature 93 °F 87 °F 94 °F (1962)
Min Temperature 78 °F 72 °F 60 °F (1977)
Cooling Degree Days 20    
Growing Degree Days 34 (Base 50)    
Moisture  
Dew Point 75 °F    
Average Humidity 76    
Maximum Humidity 94    
Minimum Humidity 50    
Precipitation  
Precipitation 0.00 in - - ()
Sea Level Pressure  
Sea Level Pressure 29.79 in    
Wind  
Wind Speed 7 mph (SW)    
Max Wind Speed 17 mph    
Max Gust Speed 23 mph    
Visibility 9 miles    
Events      
Averages and records for this station are not official NWS values.
T = Trace of Precipitation, MM = Missing Value Source: NWS Daily Summary

Daily Weather History Graph

Daily Weather History Graph

Search for Another Location

Airport or City:

Trip Planner

Search our weather history database for the weather conditions in past years. The results will help you decide how hot, cold, wet, or windy it might be!

Date:

Astronomy

Jul. 24, 2013 Rise Set
Actual Time 6:09 AM EDT 8:14 PM EDT
Civil Twilight 5:41 AM EDT 8:43 PM EDT
Nautical Twilight 5:06 AM EDT 9:17 PM EDT
Astronomical Twilight 4:29 AM EDT 9:54 PM EDT
Moon 9:28 PM EDT (7/24) 8:19 AM EDT (7/24)
Length of Visible Light 15h 02m
Length of Day
14h 05m
Waning Gibbous, 95% of the Moon is Illuminated
Jul 24
Waning Gibbous
Jul 29
Last Quarter
Aug 6
New
Aug 14
First Quarter
Aug 20
Full

Hourly Weather History & Observations

Time (EDT) Temp. Heat Index Dew Point Humidity Pressure Visibility Wind Dir Wind Speed Gust Speed Precip Events Conditions
12:56 AM 80.1 °F 85.4 °F 75.9 °F 87% 29.80 in 9.0 mi SW 4.6 mph - N/A   Clear
1:56 AM 79.0 °F - 75.0 °F 88% 29.78 in 9.0 mi SW 6.9 mph - N/A   Clear
2:56 AM 79.0 °F - 75.9 °F 90% 29.77 in 8.0 mi SW 4.6 mph - N/A   Mostly Cloudy
3:56 AM 79.0 °F - 75.0 °F 88% 29.76 in 9.0 mi WSW 6.9 mph - N/A   Scattered Clouds
4:56 AM 78.1 °F - 75.0 °F 90% 29.76 in 8.0 mi SW 5.8 mph - N/A   Clear
5:56 AM 78.1 °F - 75.0 °F 90% 29.76 in 8.0 mi SW 5.8 mph - N/A   Partly Cloudy
6:56 AM 78.1 °F - 75.0 °F 90% 29.77 in 6.0 mi SSW 4.6 mph - N/A   Clear
7:56 AM 82.0 °F 89.4 °F 75.9 °F 82% 29.79 in 9.0 mi WSW 9.2 mph - N/A   Scattered Clouds
8:56 AM 84.0 °F 92.6 °F 75.9 °F 76% 29.80 in 10.0 mi West 6.9 mph - N/A   Clear
9:56 AM 87.1 °F 96.3 °F 75.0 °F 67% 29.80 in 10.0 mi WSW 8.1 mph - N/A   Clear
10:56 AM 88.0 °F 96.5 °F 73.9 °F 63% 29.81 in 10.0 mi West 8.1 mph - N/A   Clear
11:56 AM 91.0 °F 97.6 °F 71.1 °F 52% 29.81 in 10.0 mi WSW 4.6 mph - N/A   Clear
12:56 PM 91.0 °F 96.6 °F 70.0 °F 50% 29.80 in 10.0 mi West 8.1 mph - N/A   Clear
1:56 PM 89.1 °F 97.0 °F 73.0 °F 59% 29.79 in 10.0 mi SW 12.7 mph 17.3 mph N/A   Scattered Clouds
2:56 PM 91.0 °F 100.4 °F 73.9 °F 57% 29.78 in 10.0 mi SSW 11.5 mph - N/A   Clear
3:56 PM 90.0 °F 97.9 °F 73.0 °F 57% 29.78 in 10.0 mi SSW 17.3 mph 21.9 mph N/A   Clear
4:56 PM 89.1 °F 98.0 °F 73.9 °F 61% 29.78 in 10.0 mi SSW 13.8 mph 23.0 mph N/A   Clear
5:56 PM 86.0 °F 96.0 °F 75.9 °F 72% 29.78 in 10.0 mi SSW 16.1 mph - N/A   Clear
6:56 PM 84.0 °F 91.9 °F 75.0 °F 74% 29.78 in 10.0 mi SSW 12.7 mph - N/A   Clear
7:56 PM 82.0 °F 89.4 °F 75.9 °F 82% 29.81 in 10.0 mi SSW 12.7 mph - N/A   Clear
8:56 PM 81.0 °F 87.3 °F 75.9 °F 85% 29.82 in 10.0 mi SW 8.1 mph - N/A   Clear
9:56 PM 80.1 °F 85.4 °F 75.9 °F 87% 29.83 in 10.0 mi SW 3.5 mph - N/A   Clear
10:56 PM 80.1 °F 85.8 °F 77.0 °F 90% 29.84 in 10.0 mi SSW 5.8 mph - N/A   Clear
11:56 PM 79.0 °F - 77.0 °F 94% 29.85 in 10.0 mi Calm Calm - N/A   Clear